Location: Gdynia
(54.5193°N, 18.5395°E)
Time: 00:43:41
(UTC+01:00)

ISS - Pass Details

Date: 28 January 2019
Orbit: 403 x 411 km, 51.6° (Epoch: 20 February)

Event Time Altitude Azimuth Distance (km) Brightness Sun altitude
Rises 19:07:39 0° 257° (WSW) 2,337 1.3 -24.6°
Reaches altitude 10° 19:09:46 10° 252° (WSW) 1,478 -0.1 -24.9°
Enters shadow 19:11:28 26° 239° (WSW) 843 -1.8 -25.2°
